When you browse on this site, cookies collect data to enhance your experience and personalize the content and advertising you see.
Visit our Privacy Policy to learn more. By continuing to use the site, you agree to this use of cookies and data.
  • In Hungary
  • List of Countries
  • For 7 days
  • Water Temperature
  • Satellite Maps
  • Weather Map
  • News
  • Weather Widgets
  • user-avatar
    Login

    Hourly Weather Lisieux

    Today, 26 March, Tuesday

    Time Temperature Precipitation Wind Pressure Humidity
    00:00 +4°C° 0 mm 1 mps 766 mmHg 87%
    01:00 +4°C° 0 mm 1 mps 766 mmHg 88%
    02:00 +4°C° 0 mm 1 mps 766 mmHg 89%
    03:00 +3°C° 0 mm 1 mps 766 mmHg 90%
    04:00 +3°C° 0 mm 1 mps 766 mmHg 91%
    05:00 +3°C° 0 mm 1 mps 766 mmHg 91%
    06:00 +2°C° 0 mm 1 mps 766 mmHg 91%
    07:00 +5°C° 0 mm 1 mps 766 mmHg 84%
    08:00 +7°C° 0 mm 1 mps 766 mmHg 77%
    09:00 +9°C° 0 mm 1 mps 766 mmHg 70%
    10:00 +9°C° 0 mm 2 mps 766 mmHg 67%
    11:00 +10°C° 0 mm 2 mps 766 mmHg 63%
    12:00 +11°C° 0 mm 3 mps 766 mmHg 60%
    13:00 +11°C° 0 mm 3 mps 766 mmHg 61%
    14:00 +11°C° 0 mm 3 mps 765 mmHg 62%
    15:00 +11°C° 0 mm 3 mps 765 mmHg 64%
    16:00 +10°C° 0 mm 3 mps 765 mmHg 70%
    17:00 +8°C° 0 mm 3 mps 765 mmHg 75%
    18:00 +7°C° 0 mm 2 mps 765 mmHg 81%
    19:00 +6°C° 0 mm 2 mps 765 mmHg 84%
    20:00 +5°C° 0 mm 2 mps 766 mmHg 87%
    21:00 +5°C° 0 mm 1 mps 766 mmHg 89%
    22:00 +5°C° 0 mm 1 mps 766 mmHg 89%
    23:00 +5°C° 0 mm 1 mps 766 mmHg 90%

    Tomorrow, 27 March, Wednesday

    Time Temperature Precipitation Wind Pressure Humidity
    00:00 +4°C° 0 mm 0 mps 766 mmHg 90%
    01:00 +3°C° 0 mm 0 mps 766 mmHg 90%
    02:00 +3°C° 0 mm 0 mps 766 mmHg 91%
    03:00 +3°C° 0 mm 0 mps 766 mmHg 91%
    04:00 +3°C° 0 mm 0 mps 766 mmHg 92%
    05:00 +3°C° 0 mm 0 mps 766 mmHg 92%
    06:00 +3°C° 0 mm 0 mps 766 mmHg 93%
    07:00 +5°C° 0 mm 0 mps 766 mmHg 88%
    08:00 +7°C° 0 mm 0 mps 767 mmHg 82%
    09:00 +10°C° 0 mm 0 mps 767 mmHg 77%
    10:00 +12°C° 0 mm 1 mps 767 mmHg 73%
    11:00 +13°C° 0 mm 2 mps 767 mmHg 68%
    12:00 +14°C° 0 mm 2 mps 767 mmHg 64%
    13:00 +13°C° 0 mm 3 mps 767 mmHg 66%
    14:00 +12°C° 0 mm 3 mps 767 mmHg 68%
    15:00 +12°C° 0 mm 3 mps 766 mmHg 71%
    16:00 +11°C° 0 mm 3 mps 767 mmHg 75%
    17:00 +10°C° 0 mm 3 mps 767 mmHg 80%
    18:00 +8°C° 0 mm 3 mps 767 mmHg 85%
    19:00 +7°C° 0 mm 2 mps 767 mmHg 87%
    20:00 +6°C° 0 mm 2 mps 767 mmHg 89%
    21:00 +5°C° 0 mm 2 mps 768 mmHg 91%
    22:00 +6°C° 0 mm 1 mps 768 mmHg 92%
    23:00 +6°C° 0 mm 1 mps 768 mmHg 92%

    Day after tomorrow, 28 March, Thursday

    Time Temperature Precipitation Wind Pressure Humidity
    00:00 +6°C° 0 mm 1 mps 768 mmHg 92%
    01:00 +5°C° 0 mm 1 mps 768 mmHg 92%
    02:00 +5°C° 0 mm 1 mps 768 mmHg 92%
    03:00 +5°C° 0 mm 1 mps 768 mmHg 92%
    04:00 +5°C° 0 mm 1 mps 768 mmHg 93%
    05:00 +5°C° 0 mm 1 mps 768 mmHg 93%
    06:00 +5°C° 0 mm 1 mps 768 mmHg 93%
    07:00 +7°C° 0 mm 1 mps 768 mmHg 88%
    08:00 +8°C° 0 mm 2 mps 768 mmHg 82%
    09:00 +10°C° 0 mm 2 mps 769 mmHg 77%
    10:00 +11°C° 0 mm 3 mps 769 mmHg 73%
    11:00 +12°C° 0 mm 3 mps 769 mmHg 69%
    12:00 +14°C° 0 mm 3 mps 769 mmHg 65%
    13:00 +14°C° 0 mm 3 mps 768 mmHg 66%
    14:00 +14°C° 0 mm 3 mps 768 mmHg 67%
    15:00 +14°C° 0 mm 3 mps 767 mmHg 68%
    16:00 +13°C° 0 mm 3 mps 767 mmHg 72%
    17:00 +12°C° 0 mm 3 mps 767 mmHg 77%
    18:00 +11°C° 0 mm 3 mps 767 mmHg 82%
    19:00 +10°C° 0 mm 3 mps 767 mmHg 85%
    20:00 +9°C° 0 mm 3 mps 767 mmHg 89%
    21:00 +8°C° 0 mm 2 mps 767 mmHg 92%
    22:00 +7°C° 0 mm 2 mps 767 mmHg 92%
    23:00 +7°C° 0 mm 2 mps 767 mmHg 93%

    29 March, Friday

    Time Temperature Precipitation Wind Pressure Humidity
    00:00 +7°C° 0 mm 2 mps 767 mmHg 93%
    01:00 +7°C° 0 mm 2 mps 767 mmHg 94%
    02:00 +6°C° 0 mm 2 mps 766 mmHg 94%
    03:00 +6°C° 0 mm 2 mps 766 mmHg 95%
    04:00 +6°C° 0 mm 2 mps 766 mmHg 95%
    05:00 +6°C° 0 mm 2 mps 766 mmHg 95%
    06:00 +6°C° 0 mm 2 mps 765 mmHg 95%
    07:00 +8°C° 0 mm 2 mps 765 mmHg 90%
    08:00 +10°C° 0 mm 3 mps 765 mmHg 85%
    09:00 +11°C° 0 mm 3 mps 765 mmHg 80%
    10:00 +13°C° 0 mm 3 mps 765 mmHg 75%
    11:00 +14°C° 0 mm 4 mps 764 mmHg 69%
    12:00 +15°C° 0 mm 4 mps 764 mmHg 64%
    13:00 +17°C° 0 mm 4 mps 763 mmHg 64%
    14:00 +17°C° 0 mm 4 mps 763 mmHg 63%
    15:00 +17°C° 0 mm 4 mps 762 mmHg 63%
    16:00 +16°C° 0 mm 3 mps 762 mmHg 68%
    17:00 +14°C° 0 mm 3 mps 761 mmHg 73%
    18:00 +14°C° 0 mm 2 mps 761 mmHg 78%
    19:00 +13°C° 0 mm 2 mps 761 mmHg 82%
    20:00 +10°C° 0 mm 2 mps 761 mmHg 85%
    21:00 +9°C° 0 mm 2 mps 762 mmHg 88%
    22:00 +8°C° 0 mm 2 mps 761 mmHg 88%
    23:00 +8°C° 0 mm 2 mps 761 mmHg 88%

    30 March, Saturday

    Time Temperature Precipitation Wind Pressure Humidity
    00:00 +8°C° 0 mm 1 mps 761 mmHg 88%
    01:00 +7°C° 0 mm 2 mps 761 mmHg 89%
    02:00 +7°C° 0 mm 2 mps 760 mmHg 90%
    03:00 +7°C° 0 mm 2 mps 760 mmHg 90%
    04:00 +7°C° 0 mm 2 mps 760 mmHg 91%
    05:00 +7°C° 0 mm 2 mps 760 mmHg 91%
    06:00 +7°C° 0 mm 2 mps 760 mmHg 91%
    07:00 +9°C° 0 mm 2 mps 760 mmHg 83%
    08:00 +12°C° 0 mm 2 mps 760 mmHg 75%
    09:00 +13°C° 0 mm 3 mps 760 mmHg 67%
    10:00 +14°C° 0 mm 3 mps 759 mmHg 61%
    11:00 +16°C° 0 mm 3 mps 759 mmHg 55%
    12:00 +17°C° 0 mm 3 mps 759 mmHg 50%
    13:00 +17°C° 0 mm 3 mps 758 mmHg 51%
    14:00 +18°C° 0 mm 3 mps 758 mmHg 52%
    15:00 +18°C° 0 mm 3 mps 757 mmHg 53%
    16:00 +17°C° 0 mm 2 mps 757 mmHg 58%
    17:00 +15°C° 0 mm 1 mps 757 mmHg 63%
    18:00 +13°C° 0 mm 0 mps 757 mmHg 69%
    19:00 +12°C° 0 mm 0 mps 757 mmHg 72%
    20:00 +11°C° 0 mm 0 mps 758 mmHg 76%
    21:00 +10°C° 0 mm 0 mps 758 mmHg 79%
    22:00 +9°C° 0.3 mm 0 mps 758 mmHg 81%
    23:00 +9°C° 0.3 mm 0 mps 757 mmHg 83%

    31 March, Sunday

    Time Temperature Precipitation Wind Pressure Humidity
    00:00 +8°C° 0.3 mm 0 mps 757 mmHg 84%
    01:00 +9°C° 0.1 mm 1 mps 757 mmHg 86%
    02:00 +9°C° 0.1 mm 1 mps 757 mmHg 87%
    03:00 +8°C° 0.1 mm 2 mps 757 mmHg 89%
    04:00 +8°C° 0.1 mm 2 mps 757 mmHg 90%
    05:00 +7°C° 0.1 mm 2 mps 757 mmHg 92%
    06:00 +7°C° 0.1 mm 3 mps 758 mmHg 94%
    07:00 +7°C° 0 mm 4 mps 758 mmHg 90%
    08:00 +8°C° 0 mm 5 mps 759 mmHg 87%
    09:00 +9°C° 0 mm 7 mps 759 mmHg 84%
    10:00 +9°C° 0 mm 7 mps 760 mmHg 82%
    11:00 +9°C° 0 mm 7 mps 760 mmHg 80%
    12:00 +9°C° 0 mm 7 mps 760 mmHg 79%
    13:00 +9°C° 0 mm 7 mps 760 mmHg 76%
    14:00 +9°C° 0 mm 7 mps 760 mmHg 73%
    15:00 +9°C° 0 mm 6 mps 760 mmHg 71%
    16:00 +8°C° 0 mm 6 mps 760 mmHg 71%
    17:00 +7°C° 0 mm 6 mps 761 mmHg 70%
    18:00 +7°C° 0 mm 6 mps 761 mmHg 70%
    19:00 +4°C° 0 mm 6 mps 761 mmHg 70%
    20:00 +3°C° 0 mm 6 mps 762 mmHg 70%
    21:00 +2°C° 0 mm 6 mps 762 mmHg 71%
    22:00 +1°C° 0 mm 5 mps 762 mmHg 70%
    23:00 +1°C° 0 mm 5 mps 762 mmHg 70%
    Show more